Simultaneous Nadir Overpasses (SNOs) Predictions

Prediction of SNOs between GOES-17 and NOAA-21 Satellite Orbit:

Table of predicted SNOs for the next 14.0 days since TLE Epoch: 5/25/2024
Index Date Time (GOES-17) GOES-17 Lat,Lon NOAA-21 Lat,Lon Distance(km) Time Diff (sec)
1 05/26/2024 08:23:02 -0.00,-104.71 0.08,-104.98 31.56 80
2 05/27/2024 08:06:59 0.00,-104.71 -0.95,-100.46 484.20 80
3 05/28/2024 20:26:19 -0.00,-104.70 -0.22,-105.78 121.56 80
4 05/29/2024 20:10:15 -0.01,-104.70 0.76,-101.24 394.44 80
5 05/31/2024 08:29:26 0.01,-104.71 0.42,-106.52 206.55 80
6 06/01/2024 08:13:23 0.01,-104.71 -0.62,-102.00 309.44 80
7 06/02/2024 20:32:41 -0.00,-104.70 -0.60,-107.30 296.31 80
8 06/03/2024 20:16:39 -0.00,-104.70 0.45,-102.78 219.69 80
9 06/05/2024 08:35:49 -0.01,-104.71 0.72,-108.06 381.28 80
10 06/06/2024 08:19:46 -0.01,-104.71 -0.28,-103.53 134.54 80
11 06/07/2024 20:39:04 0.02,-104.70 -0.92,-108.83 471.58 80
